French Village, MO

7:06 AM CST on February 08, 2016 (GMT -0600)
Farmington Regional

Weather History for KFAM - November, 2013

Change the Weather History Date:

Friday, November 15, 2013

  Actual Average Record
Temperature  
Mean Temperature 48 °F -  
Max Temperature 53 °F 53 °F 71 °F (2001)
Min Temperature 42 °F 35 °F 17 °F (2014)
Degree Days  
Heating Degree Days 18    
Moisture  
Dew Point 32 °F    
Average Humidity 58    
Maximum Humidity 82    
Minimum Humidity 43    
Precipitation  
Precipitation 0.00 in - - ()
Sea Level Pressure  
Sea Level Pressure 30.05 in    
Wind  
Wind Speed 10 mph (South)    
Max Wind Speed 16 mph    
Max Gust Speed 21 mph    
Visibility 10 miles    
Events      
Averages and records for this station are not official NWS values.
T = Trace of Precipitation, MM = Missing Value Source: NWS Daily Summary

Daily Weather History Graph

Daily Weather History Graph

Search for Another Location

Airport or City:

Trip Planner

Search our weather history database for the weather conditions in past years. The results will help you decide how hot, cold, wet, or windy it might be!

Date:

Astronomy

Nov. 15, 2013 Rise Set
Actual Time 6:42 AM CST 4:50 PM CST
Civil Twilight 6:14 AM CST 5:18 PM CST
Nautical Twilight 5:42 AM CST 5:49 PM CST
Astronomical Twilight 5:11 AM CST 6:20 PM CST
Moon 3:45 PM CST (11/15) 4:40 AM CST (11/15)
Length of Visible Light 11h 04m
Length of Day
10h 08m
Waxing Gibbous, 96% of the Moon is Illuminated
Nov 15
Waxing Gibbous
Nov 17
Full
Nov 25
Last Quarter
Dec 2
New
Dec 9
First Quarter

Hourly Weather History & Observations

Time (CST) Temp. Windchill Dew Point Humidity Pressure Visibility Wind Dir Wind Speed Gust Speed Precip Events Conditions
12:15 AM 44.6 °F 38.4 °F 23.0 °F 43% 30.10 in 10.0 mi South 12.7 mph 17.3 mph N/A   Scattered Clouds
12:35 AM 44.6 °F 39.2 °F 23.0 °F 43% 30.10 in 10.0 mi SSW 10.4 mph 20.7 mph N/A   Mostly Cloudy
12:55 AM 44.6 °F 37.8 °F 23.0 °F 43% 30.09 in 10.0 mi South 15.0 mph 18.4 mph N/A   Mostly Cloudy
1:15 AM 44.6 °F 38.4 °F 23.0 °F 43% 30.10 in 10.0 mi SSW 12.7 mph 17.3 mph N/A   Mostly Cloudy
1:35 AM 44.6 °F 39.2 °F 23.0 °F 43% 30.08 in 10.0 mi SSW 10.4 mph 16.1 mph N/A   Overcast
1:55 AM 44.6 °F 39.2 °F 23.0 °F 43% 30.08 in 10.0 mi SSW 10.4 mph - N/A   Overcast
2:15 AM 44.6 °F 38.8 °F 23.0 °F 43% 30.08 in 10.0 mi SSW 11.5 mph - N/A   Mostly Cloudy
2:35 AM 44.6 °F 39.2 °F 23.0 °F 43% 30.08 in 10.0 mi South 10.4 mph - N/A   Mostly Cloudy
2:55 AM 44.6 °F 40.2 °F 23.0 °F 43% 30.08 in 10.0 mi SSW 8.1 mph - N/A   Mostly Cloudy
3:15 AM 44.6 °F 40.7 °F 23.0 °F 43% 30.08 in 10.0 mi South 6.9 mph - N/A   Overcast
3:35 AM 44.6 °F 38.8 °F 24.8 °F 46% 30.08 in 10.0 mi South 11.5 mph - N/A   Overcast
3:55 AM 44.6 °F 39.7 °F 24.8 °F 46% 30.09 in 10.0 mi SW 9.2 mph - N/A   Overcast
4:15 AM 44.6 °F 40.2 °F 24.8 °F 46% 30.10 in 10.0 mi SSW 8.1 mph - N/A   Overcast
4:35 AM 44.6 °F 41.4 °F 24.8 °F 46% 30.10 in 10.0 mi SSW 5.8 mph - N/A   Overcast
4:55 AM 44.6 °F 40.7 °F 24.8 °F 46% 30.10 in 10.0 mi SW 6.9 mph - N/A   Overcast
5:15 AM 44.6 °F 40.7 °F 24.8 °F 46% 30.10 in 10.0 mi SSW 6.9 mph - N/A   Overcast
5:35 AM 44.6 °F 42.2 °F 24.8 °F 46% 30.10 in 10.0 mi SSW 4.6 mph - N/A   Overcast
5:55 AM 44.6 °F 43.1 °F 24.8 °F 46% 30.10 in 10.0 mi South 3.5 mph - N/A   Overcast
6:15 AM 44.6 °F 43.1 °F 24.8 °F 46% 30.10 in 10.0 mi South 3.5 mph - N/A   Overcast
6:35 AM 44.6 °F 43.1 °F 24.8 °F 46% 30.09 in 10.0 mi South 3.5 mph - N/A   Overcast
6:55 AM 44.6 °F 43.1 °F 26.6 °F 49% 30.10 in 10.0 mi SE 3.5 mph - N/A   Overcast
7:15 AM 42.8 °F 39.3 °F 26.6 °F 53% 30.10 in 10.0 mi South 5.8 mph - N/A   Mostly Cloudy
7:35 AM 42.8 °F 38.0 °F 26.6 °F 53% 30.10 in 10.0 mi South 8.1 mph - N/A   Mostly Cloudy
7:55 AM 42.8 °F 38.6 °F 28.4 °F 57% 30.10 in 10.0 mi SSE 6.9 mph - N/A   Mostly Cloudy
8:15 AM 42.8 °F 38.6 °F 28.4 °F 57% 30.11 in 10.0 mi South 6.9 mph - N/A   Overcast
8:35 AM 44.6 °F 40.7 °F 26.6 °F 49% 30.11 in 10.0 mi South 6.9 mph - N/A   Overcast
8:55 AM 46.4 °F 42.4 °F 28.4 °F 50% 30.11 in 10.0 mi South 8.1 mph - N/A   Overcast
9:15 AM 46.4 °F 41.1 °F 26.6 °F 46% 30.11 in 10.0 mi South 11.5 mph - N/A   Mostly Cloudy
9:35 AM 46.4 °F 43.5 °F 26.6 °F 46% 30.11 in 10.0 mi South 5.8 mph - N/A   Mostly Cloudy
9:55 AM 48.2 °F - 28.4 °F 46% 30.11 in 10.0 mi South 9.2 mph - N/A   Scattered Clouds
10:15 AM 48.2 °F - 28.4 °F 46% 30.11 in 10.0 mi South 10.4 mph - N/A   Mostly Cloudy
10:35 AM 48.2 °F - 28.4 °F 46% 30.11 in 10.0 mi South 6.9 mph - N/A   Overcast
10:55 AM 48.2 °F - 28.4 °F 46% 30.10 in 10.0 mi SSW 5.8 mph - N/A   Overcast
11:15 AM 48.2 °F - 28.4 °F 46% 30.08 in 10.0 mi SSE 5.8 mph - N/A   Overcast
11:35 AM 50.0 °F - 30.2 °F 47% 30.07 in 10.0 mi South 11.5 mph - N/A   Overcast
11:55 AM 50.0 °F - 30.2 °F 47% 30.06 in 10.0 mi SSW 10.4 mph - N/A   Overcast
12:15 PM 50.0 °F - 30.2 °F 47% 30.06 in 10.0 mi South 6.9 mph - N/A   Overcast
12:35 PM 51.8 °F - 32.0 °F 47% 30.04 in 10.0 mi South 9.2 mph - N/A   Overcast
12:55 PM 51.8 °F - 32.0 °F 47% 30.02 in 10.0 mi South 13.8 mph - N/A   Overcast
1:15 PM 53.6 °F - 33.8 °F 47% 30.02 in 10.0 mi South 12.7 mph 19.6 mph N/A   Overcast
1:35 PM 51.8 °F - 33.8 °F 50% 30.02 in 10.0 mi South 13.8 mph - N/A   Overcast
1:55 PM 51.8 °F - 33.8 °F 50% 30.01 in 10.0 mi South 13.8 mph - N/A   Overcast
2:15 PM 50.0 °F - 35.6 °F 58% 30.02 in 10.0 mi SSW 16.1 mph 20.7 mph N/A   Overcast
2:35 PM 50.0 °F - 35.6 °F 58% 30.02 in 10.0 mi South 10.4 mph 17.3 mph N/A   Overcast
2:55 PM 50.0 °F - 35.6 °F 58% 30.01 in 10.0 mi SSW 13.8 mph 19.6 mph N/A   Overcast
3:15 PM 48.2 °F - 35.6 °F 62% 30.01 in 10.0 mi South 10.4 mph - N/A   Overcast
3:35 PM 48.2 °F - 37.4 °F 66% 30.00 in 10.0 mi South 9.2 mph - N/A   Overcast
3:55 PM 48.2 °F - 39.2 °F 71% 30.00 in 10.0 mi South 8.1 mph - N/A   Overcast
4:15 PM 48.2 °F - 39.2 °F 71% 30.00 in 10.0 mi South 6.9 mph - N/A   Overcast
4:35 PM 48.2 °F - 37.4 °F 66% 30.00 in 10.0 mi South 5.8 mph - N/A   Overcast
4:55 PM 48.2 °F - 37.4 °F 66% 30.00 in 10.0 mi South 9.2 mph - N/A   Overcast
5:15 PM 48.2 °F - 37.4 °F 66% 30.00 in 10.0 mi South 8.1 mph - N/A   Mostly Cloudy
5:35 PM 46.4 °F 42.4 °F 37.4 °F 71% 30.01 in 10.0 mi South 8.1 mph - N/A   Overcast
5:55 PM 46.4 °F 41.9 °F 37.4 °F 71% 30.01 in 10.0 mi South 9.2 mph - N/A   Mostly Cloudy
6:15 PM 46.4 °F 41.9 °F 37.4 °F 71% 30.01 in 10.0 mi South 9.2 mph - N/A   Overcast
6:35 PM 46.4 °F 41.1 °F 37.4 °F 71% 30.02 in 10.0 mi South 11.5 mph 17.3 mph N/A   Overcast
6:55 PM 46.4 °F 41.5 °F 37.4 °F 71% 30.01 in 10.0 mi SSE 10.4 mph - N/A   Overcast
7:15 PM 46.4 °F 41.9 °F 37.4 °F 71% 30.01 in 10.0 mi South 9.2 mph - N/A   Overcast
7:35 PM 46.4 °F 42.4 °F 39.2 °F 76% 30.01 in 10.0 mi South 8.1 mph - N/A   Overcast
7:55 PM 46.4 °F 41.5 °F 39.2 °F 76% 30.01 in 10.0 mi South 10.4 mph - N/A   Overcast
8:15 PM 46.4 °F 41.9 °F 39.2 °F 76% 30.00 in 10.0 mi South 9.2 mph - N/A   Overcast
8:35 PM 46.4 °F 41.9 °F 39.2 °F 76% 30.00 in 10.0 mi South 9.2 mph - N/A   Overcast
8:55 PM 46.4 °F 41.9 °F 41.0 °F 81% 30.00 in 10.0 mi South 9.2 mph - N/A   Overcast
9:15 PM 48.2 °F - 41.0 °F 76% 30.01 in 10.0 mi South 12.7 mph 17.3 mph N/A   Overcast
9:35 PM 48.2 °F - 41.0 °F 76% 30.01 in 10.0 mi South 10.4 mph - N/A   Overcast
9:55 PM 48.2 °F - 42.8 °F 82% 30.01 in 10.0 mi South 15.0 mph - N/A   Overcast
10:15 PM 48.2 °F - 42.8 °F 82% 30.01 in 10.0 mi South 10.4 mph - N/A   Overcast
10:35 PM 48.2 °F - 42.8 °F 82% 29.99 in 10.0 mi SSE 9.2 mph - N/A   Overcast
10:55 PM 48.2 °F - 42.8 °F 82% 29.99 in 10.0 mi South 9.2 mph - N/A   Overcast
11:15 PM 48.2 °F - 42.8 °F 82% 29.99 in 10.0 mi South 12.7 mph - N/A   Overcast
11:35 PM 48.2 °F - 42.8 °F 82% 29.99 in 10.0 mi South 10.4 mph 17.3 mph N/A   Overcast
11:55 PM 50.0 °F - 44.6 °F 82% 29.99 in 10.0 mi South 12.7 mph - N/A   Overcast